{"data":{"norad_id":68026,"epoch":"2026-05-24T20:17:19.506624Z","epoch_age_seconds":78475,"freshness":"FRESH","line1":"1 68026U 26040M   26144.84536466  .00020949  00000+0  64927-3 0  9997","line2":"2 68026  97.2848  93.8622 0001861  98.0920 262.0534 15.33451029 13139","mean_motion":15.33451029,"eccentricity":0.0001861,"inclination_deg":97.2848,"raan_deg":93.8622,"arg_perigee_deg":98.092,"mean_anomaly_deg":262.0534,"bstar":0.00064927,"rev_number":1313,"period_min":93.905835450061,"perigee_km":464.25163093246,"apogee_km":466.79884201687,"semimajor_km":6843.6622364747,"source":"CELESTRAK","updated_at":"2026-05-25T13:38:21.806514Z"}}